Tracking 18850 objects as of 22-Nov-2017
HD Live streaming from Space Station
objects crossing your sky now

OPS 4258

Track OPS 4258 now!
OPS 4258 is classified as:


NORAD ID: 10508
Int'l Code: 1977-114A
Perigee: 35,753.5 km
Apogee: 35,895.8 km
Inclination: 17.5 °
Period: 1,437.7 minutes
Semi major axis: 42195 km
RCS: Unknown
Launch date: December 11, 1977
Source: United States (US)
Launch site: AIR FORCE EASTERN TEST RANGE (AFETR)
aabbcc
Your satellite tracking list
Your tracking list is empty




NASA's NSSDC Master Catalog

Two Line Element Set (TLE):
1 10508U 77114A   17125.61848097 0.00000000  00000-0  00000-0 0    06
2 10508  17.4601 323.2795 0016856 281.3471  78.4091  1.00161720    05
Source of the keplerian elements: McCants